Time,TemperatureF,DewpointF,PressureIn,WindDirection,WindDirectionDegrees,WindSpeedMPH,WindSpeedGustMPH,Humidity,HourlyPrecipIn,Conditions,Clouds,dailyrainin,SoftwareType,DateUTC
2013-07-25 00:02:00,56.0,46.0,30.02,East,90,0.0,0.0,70,0.00,,,0.00,,2013-07-25 04:02:00,
2013-07-25 00:22:00,56.0,47.0,30.02,East,90,0.0,0.0,71,0.00,,,0.00,,2013-07-25 04:22:00,
2013-07-25 00:33:00,55.0,46.0,30.03,East,90,0.0,0.0,72,0.00,,,0.00,,2013-07-25 04:33:00,
2013-07-25 00:43:00,55.0,47.0,30.02,East,90,0.0,0.0,73,0.00,,,0.00,,2013-07-25 04:43:00,
2013-07-25 01:02:00,55.0,47.0,30.02,East,90,0.0,0.0,74,0.00,,,0.00,,2013-07-25 05:02:00,
2013-07-25 01:22:00,54.0,46.0,30.02,East,90,0.0,0.0,74,0.00,,,0.00,,2013-07-25 05:22:00,
2013-07-25 01:32:00,54.0,46.0,30.02,East,90,0.0,0.0,75,0.00,,,0.00,,2013-07-25 05:32:00,
2013-07-25 01:43:00,53.0,46.0,30.02,East,90,0.0,0.0,76,0.00,,,0.00,,2013-07-25 05:43:00,
2013-07-25 01:52:00,53.0,46.0,30.02,East,90,0.0,0.0,76,0.00,,,0.00,,2013-07-25 05:52:00,
2013-07-25 02:02:00,53.0,46.0,30.02,East,90,0.0,0.0,77,0.00,,,0.00,,2013-07-25 06:02:00,
2013-07-25 02:12:00,53.0,46.0,30.02,East,90,0.0,0.0,78,0.00,,,0.00,,2013-07-25 06:12:00,
2013-07-25 02:32:00,52.0,45.0,30.02,East,90,0.0,0.0,78,0.00,,,0.00,,2013-07-25 06:32:00,
2013-07-25 02:42:00,52.0,46.0,30.02,East,90,0.0,0.0,79,0.00,,,0.00,,2013-07-25 06:42:00,
2013-07-25 02:52:00,52.0,46.0,30.02,East,90,0.0,0.0,79,0.00,,,0.00,,2013-07-25 06:52:00,
2013-07-25 03:02:00,52.0,46.0,30.02,East,90,0.0,0.0,79,0.00,,,0.00,,2013-07-25 07:02:00,
2013-07-25 03:12:00,52.0,46.0,30.02,East,90,0.0,0.0,79,0.00,,,0.00,,2013-07-25 07:12:00,
2013-07-25 03:22:00,51.0,45.0,30.03,East,90,0.0,0.0,80,0.00,,,0.00,,2013-07-25 07:22:00,
2013-07-25 03:33:00,51.0,45.0,30.03,East,90,0.0,0.0,80,0.00,,,0.00,,2013-07-25 07:33:00,
2013-07-25 03:43:00,51.0,45.0,30.03,East,90,0.0,0.0,80,0.00,,,0.00,,2013-07-25 07:43:00,
2013-07-25 03:53:00,51.0,45.0,30.03,East,90,0.0,0.0,80,0.00,,,0.00,,2013-07-25 07:53:00,
2013-07-25 04:02:00,51.0,45.0,30.03,East,90,0.0,0.0,81,0.00,,,0.00,,2013-07-25 08:02:00,
2013-07-25 04:12:00,51.0,46.0,30.03,East,90,0.0,0.0,82,0.00,,,0.00,,2013-07-25 08:12:00,
2013-07-25 04:22:00,51.0,46.0,30.03,East,90,0.0,0.0,82,0.00,,,0.00,,2013-07-25 08:22:00,
2013-07-25 04:44:00,51.0,46.0,30.03,East,90,0.0,0.0,82,0.00,,,0.00,,2013-07-25 08:44:00,
2013-07-25 04:52:00,51.0,46.0,30.03,East,90,0.0,0.0,82,0.00,,,0.00,,2013-07-25 08:52:00,
2013-07-25 05:02:00,51.0,46.0,30.03,East,90,0.0,0.0,82,0.00,,,0.00,,2013-07-25 09:02:00,
2013-07-25 05:12:00,51.0,46.0,30.03,East,90,0.0,0.0,82,0.00,,,0.00,,2013-07-25 09:12:00,
2013-07-25 05:22:00,51.0,46.0,30.03,East,90,0.0,0.0,82,0.00,,,0.00,,2013-07-25 09:22:00,
2013-07-25 05:43:00,51.0,46.0,30.03,East,90,0.0,0.0,83,0.00,,,0.00,,2013-07-25 09:43:00,
2013-07-25 05:52:00,51.0,46.0,30.03,East,90,0.0,0.0,83,0.00,,,0.00,,2013-07-25 09:52:00,
2013-07-25 06:02:00,50.0,45.0,30.03,East,90,0.0,0.0,83,0.00,,,0.00,,2013-07-25 10:02:00,
2013-07-25 06:12:00,50.0,45.0,30.04,East,90,0.0,0.0,83,0.00,,,0.00,,2013-07-25 10:12:00,
2013-07-25 06:22:00,50.0,45.0,30.04,East,90,0.0,0.0,83,0.00,,,0.00,,2013-07-25 10:22:00,
2013-07-25 06:32:00,50.0,45.0,30.04,East,90,0.0,0.0,83,0.00,,,0.00,,2013-07-25 10:32:00,
2013-07-25 07:02:00,50.0,45.0,30.04,East,90,0.0,0.0,84,0.00,,,0.00,,2013-07-25 11:02:00,
2013-07-25 07:22:00,50.0,45.0,30.04,East,90,0.0,0.0,84,0.00,,,0.00,,2013-07-25 11:22:00,
2013-07-25 07:32:00,50.0,45.0,30.05,East,90,0.0,0.0,84,0.00,,,0.00,,2013-07-25 11:32:00,
2013-07-25 07:43:00,50.0,46.0,30.05,East,90,0.0,0.0,85,0.00,,,0.00,,2013-07-25 11:43:00,
2013-07-25 08:03:00,51.0,47.0,30.05,East,90,0.0,0.0,85,0.00,,,0.00,,2013-07-25 12:03:00,
2013-07-25 08:22:00,52.0,48.0,30.05,East,90,0.0,0.0,86,0.00,,,0.00,,2013-07-25 12:22:00,
2013-07-25 08:32:00,57.0,53.0,30.05,East,90,0.0,0.0,87,0.00,,,0.00,,2013-07-25 12:32:00,
2013-07-25 08:45:00,60.0,55.0,30.05,SSW,203,0.0,0.0,84,0.00,,,0.00,,2013-07-25 12:45:00,
2013-07-25 09:22:00,64.0,57.0,30.06,SSE,158,0.0,0.0,77,0.00,,,0.00,,2013-07-25 13:22:00,
2013-07-25 09:33:00,66.0,57.0,30.06,SW,225,0.0,0.0,74,0.00,,,0.00,,2013-07-25 13:33:00,
2013-07-25 10:22:00,69.0,58.0,30.07,South,180,0.0,0.0,68,0.00,,,0.00,,2013-07-25 14:22:00,
2013-07-25 10:43:00,70.0,56.0,30.06,WSW,248,0.0,0.0,62,0.00,,,0.00,,2013-07-25 14:43:00,
2013-07-25 11:12:00,71.0,55.0,30.07,SSW,203,0.0,0.0,58,0.00,,,0.00,,2013-07-25 15:12:00,
2013-07-25 11:22:00,71.0,55.0,30.07,SSW,203,0.0,0.0,58,0.00,,,0.00,,2013-07-25 15:22:00,
2013-07-25 11:32:00,72.0,56.0,30.07,SW,225,0.0,0.0,57,0.00,,,0.00,,2013-07-25 15:32:00,
2013-07-25 11:44:00,73.0,56.0,30.06,SSE,158,0.0,0.0,56,0.00,,,0.00,,2013-07-25 15:44:00,
2013-07-25 11:52:00,73.0,56.0,30.06,SSE,158,0.0,0.0,56,0.00,,,0.00,,2013-07-25 15:52:00,
2013-07-25 12:02:00,74.0,57.0,30.07,West,270,0.0,0.0,56,0.00,,,0.00,,2013-07-25 16:02:00,
2013-07-25 12:45:00,76.0,58.0,30.07,SSE,158,0.0,0.0,53,0.00,,,0.00,,2013-07-25 16:45:00,
2013-07-25 13:03:00,76.0,56.0,30.06,SE,135,0.0,0.0,50,0.00,,,0.00,,2013-07-25 17:03:00,
2013-07-25 13:22:00,76.0,57.0,30.07,West,270,0.0,0.0,52,0.00,,,0.00,,2013-07-25 17:22:00,
2013-07-25 13:32:00,78.0,58.0,30.07,WSW,248,0.0,0.0,51,0.00,,,0.00,,2013-07-25 17:32:00,
2013-07-25 14:02:00,79.0,59.0,30.06,SSW,203,0.0,0.0,50,0.00,,,0.00,,2013-07-25 18:02:00,
2013-07-25 14:33:00,80.0,57.0,30.06,WSW,248,0.0,0.0,46,0.00,,,0.00,,2013-07-25 18:33:00,
2013-07-25 14:43:00,80.0,56.0,30.06,East,90,0.0,0.0,44,0.00,,,0.00,,2013-07-25 18:43:00,
2013-07-25 15:02:00,80.0,57.0,30.05,West,270,0.0,0.0,46,0.00,,,0.00,,2013-07-25 19:02:00,
2013-07-25 15:12:00,80.0,57.0,30.05,SW,225,0.0,0.0,46,0.00,,,0.00,,2013-07-25 19:12:00,
2013-07-25 15:33:00,81.0,57.0,30.05,South,180,1.0,0.0,44,0.00,,,0.00,,2013-07-25 19:33:00,
2013-07-25 15:43:00,79.0,55.0,30.04,South,180,0.0,0.0,44,0.00,,,0.00,,2013-07-25 19:43:00,
2013-07-25 16:02:00,80.0,56.0,30.04,WSW,248,0.0,0.0,44,0.00,,,0.00,,2013-07-25 20:02:00,
2013-07-25 16:12:00,81.0,57.0,30.04,SSE,158,2.0,8.0,44,0.00,,,0.00,,2013-07-25 20:12:00,
2013-07-25 16:32:00,80.0,55.0,30.03,South,180,1.0,0.0,43,0.00,,,0.00,,2013-07-25 20:32:00,
2013-07-25 16:43:00,81.0,56.0,30.03,SW,225,0.0,0.0,42,0.00,,,0.00,,2013-07-25 20:43:00,
2013-07-25 17:03:00,81.0,55.0,30.03,South,180,0.0,0.0,41,0.00,,,0.00,,2013-07-25 21:03:00,
2013-07-25 17:22:00,81.0,56.0,30.04,SW,225,0.0,0.0,42,0.00,,,0.00,,2013-07-25 21:22:00,
2013-07-25 17:32:00,82.0,56.0,30.04,South,180,0.0,0.0,41,0.00,,,0.00,,2013-07-25 21:32:00,
2013-07-25 17:44:00,81.0,55.0,30.04,SSW,203,1.0,3.0,41,0.00,,,0.00,,2013-07-25 21:44:00,
2013-07-25 17:52:00,81.0,55.0,30.04,SSW,203,1.0,3.0,41,0.00,,,0.00,,2013-07-25 21:52:00,
2013-07-25 18:02:00,81.0,54.0,30.03,SSW,203,0.0,0.0,40,0.00,,,0.00,,2013-07-25 22:02:00,
2013-07-25 18:12:00,81.0,55.0,30.03,South,180,0.0,0.0,41,0.00,,,0.00,,2013-07-25 22:12:00,
2013-07-25 18:32:00,80.0,54.0,30.03,SSW,203,0.0,1.0,41,0.00,,,0.00,,2013-07-25 22:32:00,
2013-07-25 18:43:00,80.0,55.0,30.02,South,180,0.0,0.0,42,0.00,,,0.00,,2013-07-25 22:43:00,
2013-07-25 18:52:00,80.0,55.0,30.02,South,180,0.0,0.0,42,0.00,,,0.00,,2013-07-25 22:52:00,
2013-07-25 19:02:00,78.0,53.0,30.02,South,180,1.0,3.0,42,0.00,,,0.00,,2013-07-25 23:02:00,
2013-07-25 19:32:00,77.0,53.0,30.02,SSW,203,0.0,0.0,43,0.00,,,0.00,,2013-07-25 23:32:00,
2013-07-25 19:43:00,76.0,53.0,30.02,SSW,203,0.0,0.0,45,0.00,,,0.00,,2013-07-25 23:43:00,
2013-07-25 19:52:00,76.0,53.0,30.02,SSW,203,0.0,0.0,45,0.00,,,0.00,,2013-07-25 23:52:00,
2013-07-25 20:02:00,75.0,53.0,30.03,South,180,0.0,0.0,46,0.00,,,0.00,,2013-07-26 00:02:00,
2013-07-25 20:12:00,74.0,52.0,30.02,SSE,158,0.0,0.0,47,0.00,,,0.00,,2013-07-26 00:12:00,
2013-07-25 20:33:00,74.0,52.0,30.02,South,180,0.0,0.0,47,0.00,,,0.00,,2013-07-26 00:33:00,
2013-07-25 20:43:00,73.0,52.0,30.02,SSE,158,0.0,0.0,48,0.00,,,0.00,,2013-07-26 00:43:00,
2013-07-25 20:52:00,73.0,52.0,30.02,SSE,158,0.0,0.0,48,0.00,,,0.00,,2013-07-26 00:52:00,
2013-07-25 21:02:00,73.0,53.0,30.02,SSE,158,0.0,0.0,49,0.00,,,0.00,,2013-07-26 01:02:00,
2013-07-25 21:12:00,71.0,51.0,30.01,SSE,158,0.0,0.0,50,0.00,,,0.00,,2013-07-26 01:12:00,
2013-07-25 21:22:00,71.0,51.0,30.01,SSE,158,0.0,0.0,50,0.00,,,0.00,,2013-07-26 01:22:00,
2013-07-25 21:32:00,71.0,52.0,30.01,SSE,158,0.0,0.0,51,0.00,,,0.00,,2013-07-26 01:32:00,
2013-07-25 21:43:00,70.0,52.0,30.01,SSE,158,0.0,0.0,52,0.00,,,0.00,,2013-07-26 01:43:00,
2013-07-25 22:02:00,69.0,51.0,30.02,SSE,158,0.0,0.0,53,0.00,,,0.00,,2013-07-26 02:02:00,
2013-07-25 22:12:00,68.0,51.0,30.02,SSE,158,0.0,0.0,54,0.00,,,0.00,,2013-07-26 02:12:00,
2013-07-25 22:32:00,68.0,51.0,30.03,SSE,158,0.0,0.0,55,0.00,,,0.00,,2013-07-26 02:32:00,
2013-07-25 22:43:00,67.0,51.0,30.03,SSE,158,0.0,0.0,56,0.00,,,0.00,,2013-07-26 02:43:00,
2013-07-25 23:02:00,66.0,50.0,30.03,SSE,158,0.0,0.0,57,0.00,,,0.00,,2013-07-26 03:02:00,
2013-07-25 23:22:00,66.0,51.0,30.03,SSE,158,0.0,0.0,58,0.00,,,0.00,,2013-07-26 03:22:00,
2013-07-25 23:32:00,65.0,50.0,30.03,SSE,158,0.0,0.0,59,0.00,,,0.00,,2013-07-26 03:32:00,